| time (UTC) | temp F | wind direction | speed MPH | gust MPH | rain 1hr in | rain 24hr in | rain mn in | humidity % | barometer mb |
| 20260506205016 | 55 | 0 | 2.0 | 4.0 | 0.00 | 0.00 | 0.00 | 39 | 1012.5 |
| 20260506204016 | 55 | 0 | 2.0 | 4.0 | 0.00 | 0.00 | 0.00 | 37 | 1012.5 |
| 20260506203016 | 56 | 0 | 3.0 | 10.0 | 0.00 | 0.00 | 0.00 | 35 | 1012.6 |
| 20260506202016 | 57 | 225 | 2.0 | 5.0 | 0.00 | 0.00 | 0.00 | 32 | 1012.6 |
| 20260506201016 | 57 | 270 | 2.0 | 9.0 | 0.00 | 0.00 | 0.00 | 37 | 1012.8 |
| 20260506200015 | 57 | 203 | 4.0 | 14.0 | 0.00 | 0.00 | 0.00 | 30 | 1012.9 |
| 20260506195016 | 58 | 0 | 3.0 | 10.0 | 0.00 | 0.00 | 0.00 | 32 | 1013.0 |
| 20260506194016 | 56 | 0 | 3.0 | 11.0 | 0.00 | 0.00 | 0.00 | 34 | 1013.3 |
| 20260506193015 | 56 | 0 | 2.0 | 5.0 | 0.00 | 0.00 | 0.00 | 36 | 1013.2 |
| 20260506192015 | 56 | 0 | 3.0 | 6.0 | 0.00 | 0.00 | 0.00 | 34 | 1013.4 |
| 20260506191015 | 56 | 0 | 3.0 | 9.0 | 0.00 | 0.00 | 0.00 | 36 | 1013.3 |
| 20260506190016 | 56 | 0 | 3.0 | 8.0 | 0.00 | 0.00 | 0.00 | 33 | 1013.4 |
| 20260506185016 | 56 | 0 | 3.0 | 8.0 | 0.00 | 0.00 | 0.00 | 35 | 1013.4 |
| 20260506184016 | 55 | 0 | 2.0 | 5.0 | 0.00 | 0.00 | 0.00 | 38 | 1013.4 |
| 20260506183016 | 55 | 270 | 2.0 | 7.0 | 0.00 | 0.00 | 0.00 | 37 | 1013.4 |
| 20260506182016 | 55 | 248 | 3.0 | 7.0 | 0.00 | 0.00 | 0.00 | 37 | 1013.2 |
| 20260506181016 | 54 | 270 | 2.0 | 7.0 | 0.00 | 0.00 | 0.00 | 37 | 1013.4 |
| 20260506180016 | 54 | 315 | 2.0 | 6.0 | 0.00 | 0.00 | 0.00 | 37 | 1013.3 |
| 20260506175016 | 54 | 270 | 2.0 | 7.0 | 0.00 | 0.00 | 0.00 | 36 | 1013.5 |
| 20260506174015 | 54 | 315 | 2.0 | 5.0 | 0.00 | 0.00 | 0.00 | 38 | 1013.7 |
| 20260506173016 | 54 | 225 | 2.0 | 10.0 | 0.00 | 0.00 | 0.00 | 35 | 1013.5 |
| 20260506172016 | 54 | 0 | 3.0 | 8.0 | 0.00 | 0.00 | 0.00 | 37 | 1013.7 |
| 20260506171017 | 55 | 0 | 1.0 | 6.0 | 0.00 | 0.00 | 0.00 | 37 | 1013.7 |
| 20260506170016 | 55 | 0 | 3.0 | 6.0 | 0.00 | 0.00 | 0.00 | 35 | 1013.9 |
| 20260506165016 | 55 | 0 | 4.0 | 14.0 | 0.00 | 0.00 | 0.00 | 37 | 1014.0 |
| 20260506164016 | 55 | 0 | 2.0 | 4.0 | 0.00 | 0.00 | 0.00 | 37 | 1013.7 |
| 20260506163016 | 54 | 315 | 2.0 | 5.0 | 0.00 | 0.00 | 0.00 | 39 | 1013.9 |
| 20260506162015 | 54 | 0 | 1.0 | 8.0 | 0.00 | 0.00 | 0.00 | 38 | 1013.8 |
| 20260506161015 | 54 | 0 | 2.0 | 7.0 | 0.00 | 0.00 | 0.00 | 39 | 1013.8 |
| 20260506160015 | 53 | 270 | 3.0 | 7.0 | 0.00 | 0.00 | 0.00 | 39 | 1013.9 |
| 20260506155015 | 53 | 270 | 2.0 | 6.0 | 0.00 | 0.00 | 0.00 | 43 | 1013.9 |
| 20260506154015 | 52 | 225 | 2.0 | 5.0 | 0.00 | 0.00 | 0.00 | 39 | 1013.8 |
| 20260506153015 | 52 | 248 | 2.0 | 8.0 | 0.00 | 0.00 | 0.00 | 41 | 1013.8 |
| 20260506152016 | 52 | 270 | 2.0 | 5.0 | 0.00 | 0.00 | 0.00 | 41 | 1013.9 |
| 20260506151016 | 53 | 203 | 2.0 | 7.0 | 0.00 | 0.00 | 0.00 | 40 | 1013.9 |
| 20260506150015 | 53 | 270 | 1.0 | 4.0 | 0.00 | 0.00 | 0.00 | 41 | 1014.0 |
| 20260506145016 | 52 | 270 | 2.0 | 4.0 | 0.00 | 0.00 | 0.00 | 45 | 1013.9 |
| 20260506144015 | 51 | 225 | 2.0 | 9.0 | 0.00 | 0.00 | 0.00 | 41 | 1014.0 |
| 20260506143015 | 51 | 248 | 1.0 | 4.0 | 0.00 | 0.00 | 0.00 | 42 | 1014.0 |
| 20260506142015 | 51 | 248 | 2.0 | 5.0 | 0.00 | 0.00 | 0.00 | 43 | 1013.8 |
| 20260506141015 | 51 | 0 | 2.0 | 7.0 | 0.00 | 0.00 | 0.00 | 39 | 1013.8 |
| 20260506140015 | 50 | 225 | 1.0 | 4.0 | 0.00 | 0.00 | 0.00 | 42 | 1013.8 |
| 20260506135015 | 50 | 180 | 3.0 | 5.0 | 0.00 | 0.00 | 0.00 | 42 | 1013.6 |
| 20260506134017 | 49 | 180 | 1.0 | 4.0 | 0.00 | 0.00 | 0.00 | 43 | 1013.5 |
| 20260506133015 | 49 | 225 | 1.0 | 3.0 | 0.00 | 0.00 | 0.00 | 44 | 1013.4 |
| 20260506132015 | 48 | 270 | 1.0 | 4.0 | 0.00 | 0.00 | 0.00 | 45 | 1013.1 |
| 20260506131016 | 47 | 225 | 2.0 | 5.0 | 0.00 | 0.00 | 0.00 | 51 | 1013.2 |
| 20260506130015 | 46 | 203 | 1.0 | 2.0 | 0.00 | 0.00 | 0.00 | 58 | 1013.1 |
| 20260506125016 | 45 | 225 | 1.0 | 3.0 | 0.00 | 0.00 | 0.00 | 61 | 1013.1 |
| 20260506124016 | 44 | 23 | 1.0 | 2.0 | 0.00 | 0.00 | 0.00 | 63 | 1012.9 |
| 20260506123015 | 43 | 0.0 | 1.0 | 0.00 | 0.00 | 0.00 | 69 | 1012.8 | |
| 20260506122018 | 42 | 0.0 | 0.0 | 0.00 | 0.00 | 0.00 | 71 | 1012.6 | |
| 20260506121018 | 41 | 0.0 | 0.0 | 0.00 | 0.00 | 0.00 | 76 | 1012.5 | |
| 20260506120018 | 39 | 0.0 | 0.0 | 0.00 | 0.00 | 0.00 | 78 | 1012.3 | |
| 20260506115017 | 39 | 0.0 | 0.0 | 0.00 | 0.00 | 0.00 | 79 | 1012.1 | |
| 20260506114018 | 38 | 0.0 | 0.0 | 0.00 | 0.00 | 0.00 | 79 | 1012.1 | |
| 20260506113017 | 38 | 0.0 | 0.0 | 0.00 | 0.00 | 0.00 | 78 | 1012.1 | |
| 20260506112018 | 38 | 0.0 | 0.0 | 0.00 | 0.00 | 0.00 | 78 | 1012.0 | |
| 20260506111018 | 37 | 0.0 | 0.0 | 0.00 | 0.00 | 0.00 | 78 | 1012.0 | |
| 20260506110017 | 38 | 0.0 | 0.0 | 0.00 | 0.00 | 0.00 | 77 | 1012.0 | |
| 20260506105017 | 38 | 0.0 | 0.0 | 0.00 | 0.00 | 0.00 | 76 | 1011.9 | |
| 20260506104018 | 38 | 0.0 | 0.0 | 0.00 | 0.00 | 0.00 | 75 | 1011.6 | |
| 20260506103018 | 38 | 0.0 | 0.0 | 0.00 | 0.00 | 0.00 | 74 | 1011.4 | |
| 20260506102017 | 39 | 0.0 | 0.0 | 0.00 | 0.00 | 0.00 | 74 | 1011.3 | |
| 20260506101017 | 39 | 0.0 | 0.0 | 0.00 | 0.00 | 0.00 | 74 | 1011.3 | |
| 20260506100018 | 39 | 0.0 | 0.0 | 0.00 | 0.00 | 0.00 | 73 | 1011.3 | |
| 20260506095018 | 39 | 0.0 | 0.0 | 0.00 | 0.00 | 0.00 | 73 | 1011.4 | |
| 20260506094018 | 39 | 0.0 | 0.0 | 0.00 | 0.00 | 0.00 | 73 | 1011.3 | |
| 20260506093018 | 39 | 0.0 | 0.0 | 0.00 | 0.00 | 0.00 | 72 | 1011.2 | |
| 20260506092017 | 39 | 0.0 | 0.0 | 0.00 | 0.00 | 0.00 | 72 | 1011.3 | |
| 20260506091018 | 39 | 0.0 | 0.0 | 0.00 | 0.00 | 0.00 | 71 | 1011.4 | |
| 20260506090018 | 39 | 0.0 | 0.0 | 0.00 | 0.00 | 0.00 | 70 | 1011.5 | |
| 20260506085018 | 39 | 0.0 | 0.0 | 0.00 | 0.00 | 0.00 | 69 | 1011.4 | |
| 20260506084018 | 39 | 0.0 | 0.0 | 0.00 | 0.00 | 0.00 | 68 | 1011.1 | |
| 20260506083017 | 40 | 0.0 | 0.0 | 0.00 | 0.00 | 0.00 | 67 | 1011.1 | |
| 20260506082017 | 40 | 0.0 | 0.0 | 0.00 | 0.00 | 0.00 | 66 | 1011.1 | |
| 20260506081018 | 41 | 0.0 | 0.0 | 0.00 | 0.00 | 0.00 | 64 | 1011.2 | |
| 20260506073018 | 43 | 0.0 | 0.0 | 0.00 | 0.00 | 0.00 | 60 | 1011.0 | |
| 20260506072017 | 43 | 0.0 | 0.0 | 0.00 | 0.00 | 0.00 | 58 | 1010.8 | |
| 20260506071017 | 44 | 0.0 | 0.0 | 0.00 | 0.00 | 0.00 | 56 | 1010.8 | |
| 20260506062018 | 46 | 0.0 | 1.0 | 0.00 | 0.00 | 0.00 | 50 | 1011.1 | |
| 20260506061017 | 46 | 0.0 | 2.0 | 0.00 | 0.00 | 0.00 | 50 | 1010.9 | |
| 20260506051018 | 48 | 0.0 | 0.0 | 0.00 | 0.00 | 0.00 | 49 | 1010.6 | |
| 20260506045016 | 49 | 0.0 | 0.0 | 0.00 | 0.00 | 0.00 | 47 | 1010.3 | |
| 20260506044016 | 49 | 0.0 | 0.0 | 0.00 | 0.00 | 0.00 | 46 | 1010.3 | |
| 20260506043016 | 50 | 0.0 | 2.0 | 0.00 | 0.00 | 0.00 | 46 | 1010.5 | |
| 20260506042016 | 50 | 0.0 | 1.0 | 0.00 | 0.00 | 0.00 | 44 | 1010.3 | |
| 20260506041016 | 50 | 0.0 | 2.0 | 0.00 | 0.00 | 0.00 | 43 | 1010.3 | |
| 20260506040016 | 51 | 0.0 | 1.0 | 0.00 | 0.00 | 0.00 | 43 | 1010.2 | |
| 20260506035016 | 51 | 0.0 | 2.0 | 0.00 | 0.00 | 0.00 | 42 | 1010.2 | |
| 20260506034016 | 51 | 0 | 1.0 | 3.0 | 0.00 | 0.00 | 0.00 | 42 | 1010.3 |
| 20260506033016 | 51 | 0.0 | 2.0 | 0.00 | 0.00 | 0.00 | 43 | 1009.8 | |
| 20260506032016 | 51 | 0 | 1.0 | 5.0 | 0.00 | 0.00 | 0.00 | 44 | 1009.6 |
| 20260506031016 | 51 | 315 | 1.0 | 2.0 | 0.00 | 0.00 | 0.00 | 45 | 1009.6 |
| 20260506030016 | 50 | 270 | 1.0 | 2.0 | 0.00 | 0.00 | 0.00 | 46 | 1009.5 |
| 20260506025016 | 50 | 0.0 | 0.0 | 0.00 | 0.00 | 0.00 | 50 | 1009.7 | |
| 20260506024016 | 50 | 0.0 | 1.0 | 0.00 | 0.00 | 0.00 | 50 | 1009.7 | |
| 20260506023016 | 51 | 0.0 | 0.0 | 0.00 | 0.00 | 0.00 | 48 | 1009.3 | |
| 20260506022016 | 51 | 0.0 | 0.0 | 0.00 | 0.00 | 0.00 | 46 | 1009.3 | |
| 20260506021016 | 51 | 0.0 | 0.0 | 0.00 | 0.00 | 0.00 | 46 | 1009.1 | |
| 20260506020016 | 52 | 0.0 | 0.0 | 0.00 | 0.00 | 0.00 | 45 | 1008.9 | |
| 20260506015016 | 52 | 0.0 | 0.0 | 0.00 | 0.00 | 0.00 | 44 | 1008.9 | |
| 20260506014016 | 52 | 0.0 | 0.0 | 0.00 | 0.00 | 0.00 | 45 | 1008.7 | |
| 20260506013016 | 53 | 0.0 | 0.0 | 0.00 | 0.00 | 0.00 | 42 | 1008.4 | |
| 20260506012016 | 53 | 0.0 | 0.0 | 0.00 | 0.00 | 0.00 | 42 | 1008.3 | |
| 20260506011016 | 53 | 0.0 | 0.0 | 0.00 | 0.00 | 0.00 | 41 | 1008.3 | |
| 20260506010016 | 54 | 0.0 | 1.0 | 0.00 | 0.00 | 0.00 | 40 | 1008.2 | |
| 20260506005016 | 54 | 0.0 | 1.0 | 0.00 | 0.00 | 0.00 | 40 | 1008.1 | |
| 20260506004016 | 54 | 0.0 | 3.0 | 0.00 | 0.00 | 0.00 | 39 | 1007.9 | |
| 20260506003016 | 54 | 0.0 | 2.0 | 0.00 | 0.00 | 0.00 | 38 | 1007.9 | |
| 20260506002016 | 54 | 338 | 1.0 | 3.0 | 0.00 | 0.00 | 0.00 | 39 | 1007.7 |
| 20260506001016 | 55 | 293 | 1.0 | 2.0 | 0.00 | 0.00 | 0.00 | 37 | 1008.0 |
| 20260506000016 | 55 | 315 | 1.0 | 4.0 | 0.00 | 0.00 | 0.00 | 36 | 1007.9 |
| 20260505235017 | 55 | 338 | 1.0 | 3.0 | 0.00 | 0.00 | 0.00 | 37 | 1007.8 |
| 20260505234016 | 55 | 293 | 1.0 | 4.0 | 0.00 | 0.00 | 0.00 | 37 | 1007.8 |
| 20260505233016 | 55 | 0.0 | 2.0 | 0.00 | 0.00 | 0.00 | 36 | 1008.0 | |
| 20260505232017 | 55 | 315 | 1.0 | 2.0 | 0.00 | 0.00 | 0.00 | 35 | 1007.9 |
| 20260505231016 | 55 | 315 | 1.0 | 2.0 | 0.00 | 0.00 | 0.00 | 37 | 1008.0 |
| 20260505230016 | 55 | 293 | 1.0 | 3.0 | 0.00 | 0.00 | 0.00 | 36 | 1008.1 |
| 20260505225016 | 55 | 315 | 1.0 | 3.0 | 0.00 | 0.00 | 0.00 | 35 | 1008.2 |
| 20260505224016 | 55 | 0 | 1.0 | 3.0 | 0.00 | 0.01 | 0.00 | 35 | 1008.3 |
| 20260505223016 | 55 | 315 | 1.0 | 4.0 | 0.00 | 0.01 | 0.00 | 35 | 1008.2 |
| 20260505222016 | 55 | 315 | 1.0 | 3.0 | 0.00 | 0.01 | 0.00 | 34 | 1008.1 |
| 20260505221016 | 56 | 338 | 1.0 | 3.0 | 0.00 | 0.01 | 0.00 | 35 | 1008.1 |
| 20260505220016 | 56 | 225 | 1.0 | 3.0 | 0.00 | 0.01 | 0.00 | 35 | 1008.4 |
| 20260505215016 | 56 | 293 | 2.0 | 4.0 | 0.00 | 0.01 | 0.00 | 34 | 1008.5 |
| 20260505214016 | 56 | 338 | 1.0 | 3.0 | 0.00 | 0.01 | 0.00 | 34 | 1008.3 |
| 20260505213016 | 56 | 293 | 1.0 | 5.0 | 0.00 | 0.01 | 0.00 | 34 | 1008.2 |
| 20260505212016 | 56 | 270 | 2.0 | 6.0 | 0.00 | 0.01 | 0.00 | 35 | 1008.1 |
| 20260505211016 | 56 | 315 | 1.0 | 7.0 | 0.00 | 0.01 | 0.00 | 34 | 1008.2 |
| 20260505210016 | 56 | 0.0 | 2.0 | 0.00 | 0.01 | 0.00 | 33 | 1008.2 |